Regional Weather Roundup
Issued by NWS Mobile, AL

Home | Current Version | Previous Version | Text Only | Print | Product List | Glossary On
Versions: 1 2 3 4 5 6 7 8 9 10 11 12 13 14 15 16 17 18 19 20 21 22 23 24 25 26 27 28 29 30 31 32 33 34 35 36 37 38 39 40 41 42 43 44 45 46 47 48 49 50
000
ASUS44 KMOB 032112
RWRMOB
REGIONAL WEATHER ROUNDUP
NATIONAL WEATHER SERVICE MOBILE AL
400 PM CDT TUE MAY 03 2016

NOTE: "FAIR" INDICATES FEW OR NO CLOUDS BELOW 12,000 FEET WITH NO
      SIGNIFICANT WEATHER AND/OR OBSTRUCTIONS TO VISIBILITY.

  * THESE STATIONS ARE PART OF THE UNIVERSITY OF SOUTH ALABAMA
    MESONET AND ARE NOT UNDER NWS OR FAA QUALITY CONTROL.

ALZ061>064-032200-
COASTAL ALABAMA

CITY           SKY/WX    TMP DP  RH WIND       PRES   REMARKS
MOBILE REG APT CLOUDY    74  68  81 NW3       29.88F
BROOKLEY FIELD CLOUDY    77  69  76 N7        29.88F
USA CAMPUS*    NOT AVBL
DOG RIVER*     NOT AVBL


CITY           SKY/WX    TMP DP  RH WIND       PRES   REMARKS
MOUNT VERNON*  NOT AVBL
SARALAND*      NOT AVBL
BAY MINETTE*   NOT AVBL
LOXLEY*        NOT AVBL
ROBERTSDALE*   NOT AVBL
FAIRHOPE*      NOT AVBL
ELBERTA*       NOT AVBL
FOLEY*         NOT AVBL
GRAND BAY*     NOT AVBL
DAUPHIN ISLND* NOT AVBL
BON SCOUR NWR* NOT AVBL
GULF SHORES    CLOUDY    78  71  79 W7        29.86F

$$

ALZ051>060-032200-
INTERIOR SOUTHWEST AND SOUTH CENTRAL ALABAMA

CITY           SKY/WX    TMP DP  RH WIND       PRES   REMARKS
GREENVILLE     CLOUDY    73  62  68 NW9       29.87F
EVERGREEN      PTSUNNY   76  64  66 VRB6      29.88F
CASTLEBERRY*   NOT AVBL
ATMORE*        NOT AVBL
DIXIE*         NOT AVBL
ANDALUSIA/OPP  CLOUDY    81  66  60 NW12      29.86S
ANDALUSIA*     NOT AVBL
FLORALA APT    CLOUDY    78  67  68 CALM      29.87F
FLORALA*       NOT AVBL

$$

FLZ001>006-032200-
WESTERN FLORIDA PANHANDLE

CITY           SKY/WX    TMP DP  RH WIND       PRES   REMARKS
PENSACOLA      TSTM      73  70  90 NE7       29.85F FOG
NAS PENSACOLA  LGT RAIN  78  72  81 SW13      29.84F
MILTON         CLOUDY    77  69  76 NW7       29.86F THUNDER
WHTNG S FIELD  CLOUDY    80  70  71 NW7       29.86F


CITY           SKY/WX    TMP DP  RH WIND       PRES   REMARKS
WALNUT HILL*   NOT AVBL
JAY*           NOT AVBL
DUKE FIELD     PTSUNNY   77  69  75 S7        29.83F
CRESTVIEW      CLOUDY    83  66  56 NW8       29.85F
VALPARAISO     PTSUNNY   79  70  74 S8        29.84F
DESTIN         MOSUNNY   83  72  69 VRB7      29.85F

$$

MSZ076-079-032200-
INTERIOR SOUTHEAST MISSISSIPPI

CITY           SKY/WX    TMP DP  RH WIND       PRES   REMARKS
LEAKESVILLE*   NOT AVBL
AGRICOLA*      NOT AVBL

$$

MARINE OBSERVATIONS

STATION/POSITION TIME  TEMP    WIND        PRES    WAVE
                       AIR SEA DIR/SP/G            HT/PER
                 (UTC) (F)     (DEG/KT/KT) (MB)    (FT/S)
PASCAGOULA       2000   76     220/  3/  4 1011.7F
PETIT BOIS ISLND 2030          240/  6/  8 1012.5F
GRAND BAY        1900   74     170/  7     1014.0S
KATRINA CUT      2000   75     120/  2       N/A
CEDAR POINT      2000   75      80/  3     1011.5F
E DAUPHIN ISLAND 2000   75      10/  2/  3 1011.5F
MIDDLE BAY LIGHT 2000   78     340/  3     1011.5F
USCG MOBILE BAY  2000   76 75  160/  5/  6 1012.4F
STATE DOCKS      2000   74 74              1012.0F
MEAHER PARK      2000   75        CALM     1010.8F
WEEKS BAY        1900   79                   N/A
FORT MORGAN      2000   76      10/  3/  4 1011.5F
12 S ORANGE BCH  2050   76 79  230/  6/  8 1010.6F   3/ 6
PENSACOLA BAY    2000   90 71  180/  5/  7 1011.6F
64 S DAUPHIN ISL 2000   76 77   30/  8/ 10 1012.0F

$$

SELECTED LOCATIONS ACROSS THE REGION

CITY           SKY/WX    TMP DP  RH WIND       PRES   REMARKS
NEW ORLEANS    CLOUDY    75  66  73 NW13      29.91F
GULFPORT       CLOUDY    76  66  71 N5        29.88S
PASCAGOULA AP  CLOUDY    74  69  85 NW3       29.88S
PASCAGOULA*    NOT AVBL
HATTIESBURG    CLOUDY    75  60  59 MISG      29.92F
LAUREL         MOSUNNY   75  57  53 W7        29.92F
MERIDIAN       PTSUNNY   73  56  54 N8        29.90F
JACKSON        MOSUNNY   75  54  47 N14       29.93F
MONTGOMERY     CLOUDY    75  63  66 W8        29.88F
TROY           PTSUNNY   77  65  66 NW10      29.87F
KINSTON*       NOT AVBL
GENEVA*        NOT AVBL
ASHFORD*       NOT AVBL
DOTHAN         LGT RAIN  73  70  90 CALM      29.87F FOG
PANAMA CITY    CLOUDY    79  68  69 N5        29.84F

$$




USA.gov is the U.S. government's official web portal to all federal, state and local government web resources and services.